Location: Unspecified
(0.0000°N, 0.0000°E)
Time: 12:09:51
(UTC+00:00)

N. Korean satellite - Pass Details

Date: 03 December 2019
Orbit: 455 x 506 km, 97.2° (Epoch: 10 December)

Event Time Altitude Azimuth Distance (km) Brightness Sun altitude
Rises 05:03:38 0° 26° (NNE) 2,492 10.2 -10.6°
Reaches altitude 10° 05:05:50 10° 37° (NE) 1,612 9.4 -10.1°
Maximum altitude 05:08:55 31° 101° (E) 834 8.6 -9.4°
Drops below altitude 10° 05:12:00 10° 165° (SSE) 1,601 9.8 -8.7°
Sets 05:14:10 0° 175° (S) 2,474 10.6 -8.2°
